contact:dominique.lefevre@mio.osupytheas.fr, maurice.libes@osupytheas.fr, didier.mallarino@osupytheas.fr
Project:EMSO http://www.emso-fr.org/EMSO-France
Depth: 2436.0 m
Title:EMSO Ligure Ouest : Data MII capteur AQUADOPP
Date,Latitude,Longitude,X_East,Y_North,Z_Up,Amplitude_X,Amplitude_Y,Amplitude_Z,Batterie,SoundSpeed,Heading,Pitch,Roll,Pressure,TIS,Speed,Direction
, degrees North, degrees East, m.s-1, m.s-1,m.s-1, 1, 1, 1, Volt, m.s-1, degree, degree, degree, dbar, degree_C, m.s-1, degree
2019-09-04T00:04:03,42.805,6.029,-0.019,0.009,-0.04,100.0,107.0,98.0,13.3,1505.3,324.5,-0.7,1.8,2470.152,13.32,0.021,295.3
2019-09-04T00:07:04,42.805,6.029,-0.046,-0.004,-0.068,101.0,105.0,98.0,13.3,1505.3,324.7,-0.7,1.8,2470.195,13.33,0.046,265.0
2019-09-04T00:10:05,42.805,6.029,-0.005,-0.009,-0.018,101.0,107.0,97.0,13.3,1505.3,326.4,-0.7,1.8,2470.171,13.33,0.01,209.1
2019-09-04T00:13:06,42.805,6.029,0.0,0.024,-0.02,101.0,105.0,97.0,13.4,1505.3,328.1,-0.7,1.9,2470.156,13.33,0.024,0.0
2019-09-04T00:16:07,42.805,6.029,-0.033,0.013,-0.048,100.0,106.0,97.0,13.3,1505.4,327.0,-0.7,1.8,2470.169,13.34,0.035,291.5
2019-09-04T00:19:08,42.805,6.029,-0.051,-0.002,-0.023,102.0,105.0,97.0,13.4,1505.4,327.2,-0.7,1.8,2470.126,13.34,0.051,267.8
2019-09-04T00:22:09,42.805,6.029,-0.021,0.0,-0.054,100.0,106.0,97.0,13.4,1505.4,325.7,-0.8,1.8,2470.173,13.34,0.021,270.0
2019-09-04T00:25:10,42.805,6.029,-0.006,0.001,-0.026,100.0,107.0,97.0,13.3,1505.4,328.0,-0.7,1.8,2470.169,13.34,0.006,279.5
2019-09-04T00:28:11,42.805,6.029,-0.039,0.003,-0.02,100.0,106.0,101.0,13.3,1505.4,325.5,-0.7,1.8,2470.102,13.34,0.039,274.4
2019-09-04T00:31:12,42.805,6.029,0.011,0.003,0.001,101.0,105.0,97.0,13.3,1505.4,324.3,-0.7,1.9,2470.129,13.34,0.011,74.7
2019-09-04T00:34:13,42.805,6.029,-0.023,0.002,-0.033,100.0,106.0,98.0,13.4,1505.4,323.0,-0.7,1.8,2470.128,13.34,0.023,275.0
2019-09-04T00:37:14,42.805,6.029,-0.023,-0.006,-0.034,100.0,106.0,99.0,13.3,1505.4,325.4,-0.7,1.8,2470.11,13.34,0.023,255.4
2019-09-04T00:40:15,42.805,6.029,-0.026,0.004,-0.056,100.0,107.0,97.0,13.4,1505.4,326.8,-0.7,1.8,2470.154,13.34,0.026,278.7
2019-09-04T00:43:16,42.805,6.029,-0.012,-0.003,-0.032,100.0,107.0,97.0,13.4,1505.4,325.0,-0.7,1.8,2470.133,13.34,0.012,256.0
2019-09-04T00:46:17,42.805,6.029,-0.001,-0.008,-0.021,99.0,106.0,99.0,13.3,1505.4,325.0,-0.7,1.8,2470.166,13.34,0.008,187.1
2019-09-04T00:49:18,42.805,6.029,-0.04,-0.007,-0.034,101.0,107.0,97.0,13.3,1505.4,325.1,-0.7,1.8,2470.178,13.34,0.04,260.1
2019-09-04T00:52:19,42.805,6.029,-0.035,0.004,-0.019,99.0,106.0,97.0,13.4,1505.4,326.6,-0.7,1.8,2470.159,13.34,0.035,276.5
2019-09-04T00:55:20,42.805,6.029,-0.011,0.003,-0.051,99.0,105.0,97.0,13.4,1505.4,328.4,-0.7,1.8,2470.11,13.34,0.011,285.3
2019-09-04T00:58:21,42.805,6.029,-0.054,-0.02,-0.043,99.0,107.0,98.0,13.4,1505.4,323.6,-0.7,1.8,2470.085,13.34,0.057,249.7
2019-09-04T01:01:22,42.805,6.029,0.002,0.0,-0.023,101.0,106.0,98.0,13.3,1505.4,325.7,-0.7,1.8,2470.149,13.34,0.002,90.0
2019-09-04T01:04:23,42.805,6.029,-0.019,0.005,-0.013,101.0,106.0,97.0,13.4,1505.4,326.1,-0.8,1.8,2470.1,13.34,0.019,284.7
2019-09-04T01:07:24,42.805,6.029,-0.017,0.022,-0.013,100.0,107.0,97.0,13.4,1505.4,324.6,-0.7,1.8,2470.103,13.34,0.027,322.3
2019-09-04T01:10:25,42.805,6.029,-0.012,-0.021,-0.017,101.0,106.0,98.0,13.4,1505.4,328.2,-0.7,1.8,2470.127,13.34,0.024,209.7
2019-09-04T01:13:26,42.805,6.029,-0.024,0.014,-0.055,101.0,106.0,98.0,13.4,1505.4,325.1,-0.7,1.8,2470.082,13.34,0.027,300.3
2019-09-04T01:16:27,42.805,6.029,-0.038,0.007,-0.035,101.0,106.0,99.0,13.3,1505.4,324.2,-0.7,1.8,2470.117,13.34,0.038,280.4
2019-09-04T01:19:28,42.805,6.029,0.005,0.012,-0.003,101.0,106.0,98.0,13.3,1505.4,326.1,-0.7,1.8,2470.091,13.34,0.013,22.6
2019-09-04T01:22:29,42.805,6.029,-0.014,0.01,-0.011,101.0,106.0,97.0,13.3,1505.4,326.9,-0.7,1.8,2470.067,13.34,0.017,305.5
2019-09-04T01:25:30,42.805,6.029,-0.05,0.024,-0.052,100.0,105.0,97.0,13.3,1505.4,325.3,-0.7,1.8,2470.097,13.34,0.055,295.6
2019-09-04T01:28:31,42.805,6.029,-0.021,-0.003,-0.046,101.0,104.0,96.0,13.4,1505.4,326.5,-0.7,1.8,2470.069,13.34,0.021,261.9
2019-09-04T01:31:32,42.805,6.029,-0.022,-0.006,-0.029,101.0,105.0,98.0,13.3,1505.4,327.3,-0.7,1.9,2470.118,13.34,0.022,254.7
2019-09-04T01:34:33,42.805,6.029,-0.022,0.009,-0.003,100.0,104.0,98.0,13.3,1505.4,326.4,-0.7,1.9,2470.095,13.34,0.023,292.2
2019-09-04T01:37:34,42.805,6.029,0.008,-0.014,-0.054,102.0,105.0,97.0,13.3,1505.4,323.6,-0.7,1.8,2470.097,13.34,0.016,150.3
2019-09-04T01:40:35,42.805,6.029,-0.011,0.011,-0.004,101.0,105.0,98.0,13.3,1505.3,324.0,-0.7,1.8,2470.079,13.33,0.015,315.0
2019-09-04T01:43:36,42.805,6.029,-0.041,0.002,-0.05,102.0,105.0,98.0,13.4,1505.3,324.9,-0.7,1.9,2470.099,13.33,0.041,272.8
2019-09-04T01:46:37,42.805,6.029,-0.012,-0.005,-0.025,100.0,104.0,98.0,13.4,1505.3,324.3,-0.7,1.8,2470.083,13.33,0.013,247.4
2019-09-04T01:49:38,42.805,6.029,-0.049,-0.009,-0.014,100.0,105.0,99.0,13.4,1505.3,325.1,-0.7,1.8,2470.088,13.33,0.049,259.6
2019-09-04T01:52:39,42.805,6.029,-0.041,0.002,-0.027,101.0,105.0,99.0,13.4,1505.3,324.4,-0.7,1.8,2470.099,13.33,0.041,272.8
2019-09-04T01:55:40,42.805,6.029,-0.02,0.005,-0.01,103.0,107.0,98.0,13.4,1505.3,323.9,-0.7,1.8,2470.066,13.33,0.02,284.0
2019-09-04T01:58:41,42.805,6.029,-0.007,-0.01,-0.026,103.0,106.0,97.0,13.4,1505.3,324.3,-0.7,1.8,2470.13,13.33,0.012,215.0
2019-09-04T02:01:42,42.805,6.029,-0.037,-0.017,-0.036,101.0,105.0,98.0,13.3,1505.3,323.3,-0.7,1.8,2470.088,13.33,0.04,245.3
2019-09-04T02:04:43,42.805,6.029,-0.025,-0.023,-0.014,101.0,105.0,98.0,13.3,1505.3,323.9,-0.7,1.8,2470.083,13.33,0.033,227.4
2019-09-04T02:07:44,42.805,6.029,-0.01,-0.009,-0.042,101.0,106.0,98.0,13.4,1505.3,325.6,-0.7,1.8,2470.075,13.33,0.013,228.0
2019-09-04T02:10:45,42.805,6.029,-0.014,-0.006,-0.022,102.0,107.0,99.0,13.4,1505.3,327.2,-0.7,1.9,2470.098,13.33,0.015,246.8
2019-09-04T02:13:46,42.805,6.029,-0.016,-0.001,-0.005,102.0,108.0,98.0,13.3,1505.3,324.6,-0.7,1.8,2470.078,13.33,0.016,266.4
2019-09-04T02:16:47,42.805,6.029,-0.012,-0.02,0.016,102.0,108.0,97.0,13.4,1505.3,328.8,-0.7,1.9,2470.068,13.33,0.023,211.0
2019-09-04T02:19:48,42.805,6.029,0.007,-0.001,0.026,103.0,104.0,98.0,13.3,1505.4,327.9,-0.7,1.8,2470.046,13.34,0.007,98.1
2019-09-04T02:22:49,42.805,6.029,-0.053,-0.003,-0.026,101.0,107.0,99.0,13.4,1505.4,322.8,-0.7,1.8,2470.11,13.34,0.053,266.8
2019-09-04T02:25:50,42.805,6.029,-0.015,0.001,-0.007,101.0,105.0,99.0,13.4,1505.4,324.0,-0.7,1.8,2470.069,13.34,0.015,273.8
2019-09-04T02:28:51,42.805,6.029,-0.003,-0.001,0.003,102.0,104.0,99.0,13.4,1505.4,326.8,-0.7,1.9,2470.035,13.34,0.003,251.6
2019-09-04T02:31:52,42.805,6.029,0.004,-0.005,-0.018,101.0,105.0,99.0,13.4,1505.4,325.5,-0.8,1.8,2470.071,13.34,0.006,141.3
2019-09-04T02:34:53,42.805,6.029,0.015,-0.008,0.004,102.0,105.0,99.0,13.3,1505.4,327.0,-0.7,1.8,2470.062,13.34,0.017,118.1
2019-09-04T02:37:54,42.805,6.029,-0.01,-0.006,-0.017,102.0,107.0,99.0,13.4,1505.4,324.7,-0.7,1.8,2470.106,13.34,0.011,239.0
2019-09-04T02:40:55,42.805,6.029,-0.014,0.007,-0.003,100.0,106.0,98.0,13.4,1505.4,327.9,-0.7,1.8,2470.061,13.34,0.015,296.6
2019-09-04T02:43:56,42.805,6.029,-0.03,0.002,0.015,101.0,106.0,100.0,13.4,1505.3,325.1,-0.7,1.8,2470.078,13.33,0.03,273.8
2019-09-04T02:46:57,42.805,6.029,-0.001,0.007,-0.008,103.0,105.0,100.0,13.4,1505.3,323.4,-0.7,1.8,2470.052,13.33,0.007,351.9
2019-09-04T02:49:58,42.805,6.029,0.006,-0.001,-0.043,103.0,105.0,99.0,13.3,1505.3,325.3,-0.7,1.8,2469.991,13.33,0.006,99.5
2019-09-04T02:52:59,42.805,6.029,-0.006,0.004,-0.022,103.0,104.0,99.0,13.4,1505.4,327.3,-0.7,1.8,2470.01,13.34,0.007,303.7
2019-09-04T02:56:00,42.805,6.029,-0.017,-0.019,-0.037,102.0,105.0,100.0,13.4,1505.3,325.0,-0.7,1.9,2470.033,13.33,0.025,221.8
2019-09-04T02:59:01,42.805,6.029,-0.021,-0.006,0.007,102.0,107.0,98.0,13.4,1505.3,325.2,-0.7,1.8,2469.988,13.33,0.021,254.1
2019-09-04T03:02:02,42.805,6.029,-0.044,0.0,-0.064,102.0,105.0,98.0,13.4,1505.3,326.3,-0.7,1.8,2470.021,13.33,0.044,270.0
2019-09-04T03:05:03,42.805,6.029,-0.016,-0.004,-0.045,102.0,106.0,100.0,13.4,1505.3,328.1,-0.7,1.8,2470.054,13.33,0.016,256.0
2019-09-04T03:08:04,42.805,6.029,-0.02,0.0,-0.045,103.0,105.0,98.0,13.4,1505.3,324.9,-0.7,1.8,2470.069,13.33,0.02,270.0
2019-09-04T03:11:05,42.805,6.029,-0.027,-0.005,-0.024,101.0,106.0,99.0,13.4,1505.3,325.2,-0.7,1.8,2470.026,13.33,0.027,259.5
2019-09-04T03:14:06,42.805,6.029,-0.023,0.007,0.0,101.0,106.0,98.0,13.4,1505.3,326.3,-0.7,1.8,2470.003,13.33,0.024,286.9
2019-09-04T03:17:07,42.805,6.029,-0.036,0.009,-0.009,101.0,106.0,99.0,13.4,1505.3,324.2,-0.7,1.8,2470.045,13.33,0.037,284.0
2019-09-04T03:20:08,42.805,6.029,-0.025,0.006,-0.067,101.0,107.0,97.0,13.4,1505.4,328.4,-0.7,1.8,2470.038,13.34,0.025,283.5
2019-09-04T03:23:09,42.805,6.029,0.002,-0.018,-0.006,101.0,105.0,98.0,13.4,1505.4,323.7,-0.7,1.8,2470.012,13.34,0.018,173.7
2019-09-04T03:26:10,42.805,6.029,-0.052,-0.005,-0.033,102.0,105.0,98.0,13.3,1505.4,326.8,-0.7,1.8,2470.043,13.34,0.052,264.5
2019-09-04T03:29:11,42.805,6.029,-0.027,-0.01,-0.003,102.0,106.0,100.0,13.4,1505.4,325.6,-0.7,1.8,2470.079,13.34,0.028,249.7
2019-09-04T03:32:12,42.805,6.029,-0.02,0.013,-0.016,101.0,105.0,101.0,13.4,1505.4,324.3,-0.7,1.8,2470.055,13.34,0.023,303.0
2019-09-04T03:35:13,42.805,6.029,-0.035,0.0,-0.056,102.0,106.0,99.0,13.4,1505.4,323.9,-0.7,1.8,2469.998,13.34,0.035,270.0
2019-09-04T03:38:14,42.805,6.029,-0.017,0.009,-0.011,103.0,108.0,99.0,13.4,1505.4,325.1,-0.7,1.8,2470.012,13.34,0.019,297.9
2019-09-04T03:41:15,42.805,6.029,-0.019,0.004,0.006,102.0,106.0,98.0,13.4,1505.4,324.3,-0.7,1.9,2470.025,13.34,0.019,281.9
2019-09-04T03:44:16,42.805,6.029,-0.007,0.002,-0.052,102.0,106.0,100.0,13.3,1505.4,323.7,-0.7,1.8,2470.054,13.34,0.007,285.9
2019-09-04T03:47:17,42.805,6.029,-0.013,-0.005,-0.011,103.0,104.0,100.0,13.3,1505.4,325.6,-0.7,1.8,2469.984,13.34,0.013,249.0
2019-09-04T03:50:18,42.805,6.029,-0.012,0.005,-0.039,102.0,107.0,98.0,13.3,1505.4,324.5,-0.7,1.9,2470.019,13.34,0.013,292.6
2019-09-04T03:53:19,42.805,6.029,-0.016,-0.023,-0.003,103.0,106.0,99.0,13.3,1505.4,324.3,-0.7,1.8,2470.023,13.34,0.028,214.8
2019-09-04T03:56:20,42.805,6.029,-0.017,-0.011,-0.045,102.0,105.0,98.0,13.4,1505.4,326.9,-0.7,1.8,2470.009,13.34,0.02,237.1
2019-09-04T03:59:21,42.805,6.029,-0.032,0.0,-0.062,103.0,107.0,99.0,13.4,1505.4,326.3,-0.7,1.8,2469.98,13.34,0.032,270.0
2019-09-04T04:02:22,42.805,6.029,-0.03,-0.003,-0.042,103.0,106.0,99.0,13.4,1505.4,328.2,-0.7,1.8,2470.0,13.34,0.03,264.3
2019-09-04T04:05:23,42.805,6.029,-0.027,0.002,-0.022,101.0,106.0,99.0,13.4,1505.4,326.5,-0.7,1.8,2470.02,13.34,0.027,274.2
2019-09-04T04:08:24,42.805,6.029,-0.011,-0.001,-0.034,102.0,108.0,98.0,13.4,1505.4,325.5,-0.7,1.8,2470.017,13.34,0.011,264.8
2019-09-04T04:11:25,42.805,6.029,-0.01,-0.019,-0.016,102.0,106.0,99.0,13.4,1505.4,326.4,-0.7,1.8,2470.026,13.34,0.021,207.8
2019-09-04T04:14:26,42.805,6.029,-0.048,0.0,-0.032,102.0,107.0,99.0,13.4,1505.4,323.6,-0.7,1.8,2470.018,13.34,0.048,270.0
2019-09-04T04:17:27,42.805,6.029,0.001,0.013,0.015,103.0,105.0,99.0,13.4,1505.4,327.2,-0.7,1.8,2469.988,13.34,0.013,4.4
2019-09-04T04:20:28,42.805,6.029,-0.023,-0.004,-0.008,102.0,108.0,99.0,13.4,1505.4,325.4,-0.7,1.9,2470.012,13.34,0.023,260.1
2019-09-04T04:23:29,42.805,6.029,0.005,0.003,-0.03,104.0,106.0,99.0,13.3,1505.4,325.4,-0.8,1.9,2470.013,13.34,0.005,59.0
2019-09-04T04:26:30,42.805,6.029,-0.022,-0.013,-0.035,101.0,106.0,99.0,13.4,1505.4,325.8,-0.7,1.8,2470.004,13.34,0.025,239.4
2019-09-04T04:29:31,42.805,6.029,0.0,0.015,-0.022,101.0,107.0,99.0,13.4,1505.4,324.6,-0.7,1.8,2470.008,13.34,0.015,0.0
2019-09-04T04:32:32,42.805,6.029,-0.019,-0.014,-0.051,103.0,105.0,99.0,13.4,1505.4,328.6,-0.7,1.8,2470.003,13.34,0.023,233.6
2019-09-04T04:35:33,42.805,6.029,-0.011,-0.003,-0.058,100.0,106.0,99.0,13.4,1505.4,323.3,-0.7,1.8,2469.994,13.34,0.011,254.7
2019-09-04T04:38:34,42.805,6.029,-0.011,-0.016,-0.013,102.0,105.0,99.0,13.3,1505.4,325.6,-0.7,1.8,2469.995,13.34,0.019,214.5
2019-09-04T04:41:35,42.805,6.029,-0.022,-0.005,-0.029,103.0,106.0,100.0,13.4,1505.4,324.4,-0.7,1.8,2469.986,13.34,0.022,257.2
2019-09-04T04:44:36,42.805,6.029,-0.027,-0.002,-0.02,102.0,105.0,98.0,13.4,1505.4,328.2,-0.7,1.8,2470.036,13.34,0.027,265.8
2019-09-04T04:47:37,42.805,6.029,-0.023,-0.002,-0.048,102.0,106.0,98.0,13.3,1505.4,326.3,-0.7,1.9,2470.018,13.34,0.023,265.0
2019-09-04T04:50:38,42.805,6.029,0.0,-0.01,-0.024,101.0,104.0,99.0,13.4,1505.4,325.0,-0.7,1.8,2469.967,13.34,0.01,180.0
2019-09-04T04:53:39,42.805,6.029,-0.018,-0.015,0.011,101.0,104.0,99.0,13.3,1505.4,324.8,-0.7,1.8,2469.961,13.34,0.023,230.2
2019-09-04T04:56:40,42.805,6.029,-0.019,0.003,0.034,103.0,105.0,99.0,13.4,1505.4,328.3,-0.7,1.8,2470.008,13.34,0.019,279.0
2019-09-04T04:59:41,42.805,6.029,-0.02,0.005,-0.013,103.0,105.0,99.0,13.4,1505.3,323.3,-0.7,1.8,2469.974,13.33,0.02,284.0
2019-09-04T05:02:42,42.805,6.029,-0.016,0.016,0.011,101.0,106.0,99.0,13.3,1505.4,324.2,-0.7,1.8,2469.98,13.34,0.022,315.0
2019-09-04T05:05:43,42.805,6.029,-0.023,-0.029,-0.01,103.0,106.0,99.0,13.4,1505.3,325.6,-0.7,1.8,2469.993,13.33,0.037,218.4
2019-09-04T05:08:44,42.805,6.029,-0.029,-0.002,-0.021,101.0,107.0,98.0,13.4,1505.4,327.0,-0.7,1.8,2469.993,13.34,0.029,266.1
2019-09-04T05:11:45,42.805,6.029,-0.022,-0.025,-0.048,101.0,105.0,99.0,13.4,1505.4,325.0,-0.7,1.8,2469.994,13.34,0.033,221.3
2019-09-04T05:14:46,42.805,6.029,-0.045,0.005,-0.056,102.0,106.0,98.0,13.3,1505.4,326.8,-0.7,1.8,2469.999,13.34,0.045,276.3
2019-09-04T05:17:47,42.805,6.029,-0.027,0.01,-0.018,102.0,104.0,98.0,13.4,1505.4,326.1,-0.7,1.8,2469.937,13.34,0.028,290.3
2019-09-04T05:20:48,42.805,6.029,-0.011,-0.017,-0.018,103.0,104.0,98.0,13.4,1505.4,323.6,-0.7,1.9,2469.993,13.34,0.02,212.9
2019-09-04T05:23:49,42.805,6.029,-0.04,-0.001,-0.035,99.0,107.0,98.0,13.3,1505.4,326.7,-0.7,1.8,2469.983,13.34,0.04,268.6
2019-09-04T05:26:50,42.805,6.029,0.008,-0.003,-0.007,101.0,107.0,99.0,13.3,1505.4,327.6,-0.7,1.8,2469.997,13.34,0.008,110.6
2019-09-04T05:29:51,42.805,6.029,-0.011,0.0,-0.033,102.0,109.0,98.0,13.3,1505.4,325.7,-0.7,1.9,2469.986,13.34,0.011,270.0
2019-09-04T05:32:52,42.805,6.029,-0.008,-0.003,0.0,101.0,106.0,99.0,13.4,1505.4,324.8,-0.7,1.8,2470.005,13.34,0.008,249.4
2019-09-04T05:35:53,42.805,6.029,-0.03,-0.005,-0.004,102.0,108.0,100.0,13.4,1505.4,325.2,-0.7,1.8,2469.966,13.34,0.03,260.5
2019-09-04T05:38:54,42.805,6.029,-0.012,-0.02,0.013,103.0,105.0,101.0,13.3,1505.4,326.9,-0.7,1.8,2469.987,13.34,0.023,211.0
2019-09-04T05:41:55,42.805,6.029,-0.013,-0.017,-0.027,103.0,104.0,99.0,13.3,1505.4,324.6,-0.7,1.8,2469.965,13.34,0.021,217.4
2019-09-04T05:44:56,42.805,6.029,0.012,0.009,0.002,103.0,105.0,99.0,13.4,1505.4,326.5,-0.7,1.8,2469.996,13.34,0.015,53.1
2019-09-04T05:47:57,42.805,6.029,0.01,-0.006,0.024,101.0,107.0,98.0,13.4,1505.4,327.8,-0.7,1.9,2469.972,13.34,0.011,121.0
2019-09-04T05:50:58,42.805,6.029,-0.031,0.015,-0.029,102.0,106.0,100.0,13.3,1505.4,327.5,-0.7,1.9,2469.948,13.34,0.034,295.8
2019-09-04T05:53:59,42.805,6.029,0.024,-0.01,-0.002,102.0,105.0,99.0,13.4,1505.4,327.7,-0.7,1.8,2469.933,13.34,0.026,112.6
2019-09-04T05:57:00,42.805,6.029,0.017,-0.012,-0.042,102.0,108.0,99.0,13.4,1505.4,325.5,-0.7,1.9,2469.954,13.34,0.02,125.2
2019-09-04T06:00:01,42.805,6.029,-0.016,-0.004,-0.05,102.0,106.0,98.0,13.4,1505.4,327.1,-0.7,1.8,2470.035,13.34,0.016,256.0
2019-09-04T06:03:02,42.805,6.029,0.013,0.013,-0.018,103.0,105.0,97.0,13.3,1505.4,328.3,-0.7,1.8,2470.013,13.34,0.018,45.0
2019-09-04T06:06:03,42.805,6.029,-0.041,0.007,-0.027,102.0,105.0,99.0,13.4,1505.4,327.5,-0.7,1.8,2469.967,13.34,0.041,279.7
2019-09-04T06:09:04,42.805,6.029,-0.047,0.003,-0.035,103.0,106.0,98.0,13.4,1505.4,326.2,-0.8,1.9,2469.972,13.34,0.047,273.6
2019-09-04T06:12:05,42.805,6.029,-0.043,-0.006,-0.053,103.0,105.0,99.0,13.4,1505.4,327.7,-0.7,1.8,2469.992,13.34,0.043,262.1
2019-09-04T06:15:06,42.805,6.029,-0.013,0.001,-0.042,103.0,105.0,98.0,13.4,1505.4,327.4,-0.7,1.9,2469.989,13.34,0.013,274.4
2019-09-04T06:18:07,42.805,6.029,-0.018,-0.011,-0.041,100.0,105.0,99.0,13.3,1505.4,326.4,-0.7,1.8,2470.02,13.34,0.021,238.6
2019-09-04T06:21:08,42.805,6.029,-0.019,-0.001,0.002,101.0,106.0,102.0,13.4,1505.4,326.3,-0.7,1.8,2469.994,13.34,0.019,267.0
2019-09-04T06:24:09,42.805,6.029,-0.02,0.02,-0.027,102.0,105.0,98.0,13.4,1505.4,328.3,-0.7,1.8,2470.039,13.34,0.028,315.0
2019-09-04T06:27:10,42.805,6.029,-0.02,-0.005,-0.009,101.0,106.0,99.0,13.4,1505.4,324.8,-0.7,1.8,2470.003,13.34,0.02,256.0
2019-09-04T06:30:11,42.805,6.029,-0.013,0.031,0.002,102.0,107.0,97.0,13.4,1505.4,326.5,-0.7,1.8,2470.015,13.34,0.033,337.3
2019-09-04T06:33:12,42.805,6.029,0.033,0.022,0.008,103.0,107.0,100.0,13.4,1505.4,326.6,-0.7,1.8,2470.033,13.34,0.039,56.3
2019-09-04T06:36:13,42.805,6.029,0.007,0.01,-0.007,102.0,106.0,99.0,13.3,1505.4,323.3,-0.7,1.8,2469.986,13.34,0.012,35.0
2019-09-04T06:39:14,42.805,6.029,-0.005,-0.001,-0.013,102.0,106.0,98.0,13.4,1505.4,326.5,-0.7,1.8,2469.999,13.34,0.005,258.7
2019-09-04T06:42:15,42.805,6.029,-0.03,0.005,-0.008,102.0,106.0,99.0,13.3,1505.4,326.8,-0.7,1.8,2469.996,13.34,0.03,279.5
2019-09-04T06:45:16,42.805,6.029,-0.036,0.001,-0.052,103.0,107.0,99.0,13.3,1505.4,323.1,-0.8,1.9,2470.028,13.34,0.036,271.6
2019-09-04T06:48:17,42.805,6.029,0.008,0.001,-0.014,102.0,107.0,99.0,13.4,1505.4,325.5,-0.7,1.8,2470.006,13.34,0.008,82.9
2019-09-04T06:51:18,42.805,6.029,-0.01,0.016,-0.023,103.0,108.0,99.0,13.4,1505.4,324.8,-0.7,1.8,2470.014,13.34,0.018,328.0
2019-09-04T06:54:19,42.805,6.029,-0.029,0.006,-0.001,101.0,106.0,98.0,13.3,1505.4,326.5,-0.7,1.8,2470.025,13.34,0.029,281.7
2019-09-04T06:57:20,42.805,6.029,-0.036,0.018,-0.02,103.0,107.0,98.0,13.4,1505.4,325.5,-0.7,1.8,2470.051,13.34,0.04,296.6
2019-09-04T07:00:21,42.805,6.029,-0.01,-0.006,0.009,103.0,106.0,99.0,13.4,1505.4,327.3,-0.7,1.8,2470.036,13.34,0.011,239.0
2019-09-04T07:03:22,42.805,6.029,-0.016,0.004,-0.025,102.0,105.0,98.0,13.4,1505.4,328.7,-0.7,1.8,2470.043,13.34,0.016,284.0
2019-09-04T07:06:23,42.805,6.029,0.019,-0.018,0.003,102.0,106.0,101.0,13.4,1505.4,328.6,-0.7,1.8,2470.03,13.34,0.026,133.5
2019-09-04T07:09:24,42.805,6.029,-0.02,-0.005,-0.032,102.0,105.0,99.0,13.3,1505.4,325.5,-0.7,1.9,2470.047,13.34,0.02,256.0
2019-09-04T07:12:25,42.805,6.029,-0.01,-0.002,0.063,101.0,104.0,98.0,13.4,1505.4,328.1,-0.7,1.8,2470.026,13.34,0.01,258.7
2019-09-04T07:15:26,42.805,6.029,-0.046,0.001,-0.047,102.0,106.0,100.0,13.3,1505.4,327.8,-0.7,1.8,2470.049,13.34,0.046,271.2
2019-09-04T07:18:27,42.805,6.029,-0.02,0.001,-0.037,102.0,105.0,100.0,13.4,1505.4,327.6,-0.7,1.9,2470.052,13.34,0.02,272.9
2019-09-04T07:21:28,42.805,6.029,-0.026,0.009,-0.039,101.0,107.0,98.0,13.4,1505.4,327.6,-0.7,1.8,2470.025,13.34,0.027,289.1
2019-09-04T07:24:29,42.805,6.029,-0.014,-0.005,-0.036,100.0,107.0,98.0,13.3,1505.4,328.4,-0.7,1.8,2470.065,13.34,0.014,250.4
2019-09-04T07:27:30,42.805,6.029,-0.029,-0.004,-0.012,102.0,107.0,98.0,13.3,1505.4,328.1,-0.7,1.8,2470.038,13.34,0.029,262.2
2019-09-04T07:30:31,42.805,6.029,-0.032,0.007,-0.033,102.0,106.0,98.0,13.3,1505.4,327.7,-0.7,1.8,2470.041,13.34,0.032,282.3
2019-09-04T07:33:32,42.805,6.029,-0.014,0.0,-0.025,102.0,107.0,97.0,13.4,1505.4,328.1,-0.7,1.8,2470.03,13.34,0.014,270.0
2019-09-04T07:36:33,42.805,6.029,-0.038,-0.004,-0.04,101.0,107.0,99.0,13.4,1505.4,323.9,-0.7,1.8,2470.054,13.34,0.038,264.0
2019-09-04T07:39:34,42.805,6.029,-0.036,0.009,-0.023,101.0,107.0,99.0,13.4,1505.4,323.8,-0.7,1.8,2470.072,13.34,0.037,284.0
2019-09-04T07:42:35,42.805,6.029,-0.036,0.005,-0.037,101.0,105.0,98.0,13.3,1505.4,324.4,-0.7,1.8,2470.054,13.34,0.036,277.9
2019-09-04T07:45:36,42.805,6.029,-0.014,0.008,-0.029,102.0,107.0,97.0,13.4,1505.4,324.0,-0.7,1.8,2470.05,13.34,0.016,299.7
2019-09-04T07:48:37,42.805,6.029,-0.023,-0.01,-0.074,101.0,105.0,101.0,13.4,1505.4,324.8,-0.7,1.8,2470.071,13.34,0.025,246.5
2019-09-04T07:51:38,42.805,6.029,-0.031,0.004,-0.02,102.0,105.0,101.0,13.4,1505.4,324.9,-0.7,1.9,2470.09,13.34,0.031,277.3
2019-09-04T07:54:39,42.805,6.029,-0.042,0.001,-0.063,101.0,107.0,98.0,13.4,1505.4,324.8,-0.7,1.8,2470.048,13.34,0.042,271.4
2019-09-04T07:57:40,42.805,6.029,-0.031,-0.007,-0.032,104.0,105.0,101.0,13.4,1505.4,327.5,-0.7,1.8,2470.111,13.34,0.031,257.3
2019-09-04T08:00:41,42.805,6.029,-0.051,-0.004,-0.079,102.0,104.0,98.0,13.4,1505.4,327.0,-0.8,1.8,2470.086,13.34,0.051,265.5
2019-09-04T08:03:42,42.805,6.029,-0.036,-0.006,-0.061,102.0,107.0,98.0,13.3,1505.4,327.0,-0.7,1.9,2470.083,13.34,0.036,260.5
2019-09-04T08:06:43,42.805,6.029,-0.041,0.009,-0.041,102.0,105.0,98.0,13.3,1505.4,327.1,-0.7,1.8,2470.071,13.34,0.041,282.4
2019-09-04T08:09:44,42.805,6.029,-0.041,-0.009,-0.059,103.0,105.0,98.0,13.4,1505.4,327.1,-0.7,1.8,2470.093,13.34,0.041,257.6
2019-09-04T08:12:45,42.805,6.029,0.011,-0.013,-0.034,101.0,105.0,99.0,13.4,1505.4,327.6,-0.7,1.8,2470.103,13.34,0.017,139.8
2019-09-04T08:15:46,42.805,6.029,-0.067,0.007,-0.019,103.0,104.0,99.0,13.3,1505.4,327.9,-0.7,1.8,2470.094,13.34,0.067,276.0
2019-09-04T08:18:47,42.805,6.029,-0.044,-0.03,-0.058,102.0,104.0,98.0,13.4,1505.4,327.8,-0.7,1.8,2470.099,13.34,0.053,235.7
2019-09-04T08:21:48,42.805,6.029,-0.034,-0.011,-0.057,101.0,104.0,98.0,13.4,1505.4,327.0,-0.7,1.8,2470.092,13.34,0.035,252.1
2019-09-04T08:24:49,42.805,6.029,-0.03,-0.014,-0.017,103.0,105.0,99.0,13.4,1505.4,327.8,-0.7,1.8,2470.101,13.34,0.033,245.0
2019-09-04T08:27:50,42.805,6.029,-0.05,-0.037,-0.089,103.0,105.0,99.0,13.3,1505.4,323.5,-0.7,1.8,2470.09,13.34,0.062,233.5
2019-09-04T08:30:51,42.805,6.029,-0.047,-0.017,-0.059,102.0,108.0,99.0,13.4,1505.4,323.2,-0.7,1.9,2470.11,13.34,0.049,250.1
2019-09-04T08:33:52,42.805,6.029,-0.049,-0.023,-0.055,101.0,107.0,99.0,13.4,1505.4,323.2,-0.7,1.8,2470.1,13.34,0.054,244.9
2019-09-04T08:36:53,42.805,6.029,-0.042,-0.013,-0.065,101.0,105.0,99.0,13.4,1505.4,326.5,-0.7,1.9,2470.127,13.34,0.043,252.8
2019-09-04T08:39:54,42.805,6.029,-0.034,-0.001,-0.047,102.0,105.0,97.0,13.3,1505.4,323.5,-0.7,1.8,2470.102,13.34,0.034,268.3
2019-09-04T08:42:55,42.805,6.029,-0.041,-0.02,-0.069,101.0,106.0,100.0,13.4,1505.4,326.9,-0.7,1.9,2470.127,13.34,0.045,244.0
2019-09-04T08:45:56,42.805,6.029,-0.08,-0.024,-0.076,101.0,107.0,99.0,13.4,1505.4,326.6,-0.7,1.8,2470.118,13.34,0.083,253.3
2019-09-04T08:48:57,42.805,6.029,-0.067,0.0,-0.089,101.0,106.0,98.0,13.4,1505.4,326.1,-0.7,1.8,2470.11,13.34,0.066,270.0
2019-09-04T08:51:58,42.805,6.029,-0.052,-0.018,-0.051,102.0,106.0,100.0,13.4,1505.4,326.9,-0.7,1.9,2470.134,13.34,0.055,250.9
2019-09-04T08:54:59,42.805,6.029,-0.033,-0.002,-0.023,103.0,107.0,98.0,13.4,1505.4,324.7,-0.7,1.8,2470.125,13.34,0.033,266.5
2019-09-04T08:58:00,42.805,6.029,-0.032,0.001,-0.036,103.0,106.0,98.0,13.3,1505.4,324.7,-0.7,1.8,2470.106,13.34,0.032,271.8
2019-09-04T09:01:01,42.805,6.029,-0.017,0.002,-0.045,101.0,105.0,99.0,13.4,1505.4,325.7,-0.7,1.8,2470.086,13.34,0.017,276.7
2019-09-04T09:04:02,42.805,6.029,-0.008,-0.015,-0.017,101.0,115.0,99.0,13.3,1505.4,324.2,-0.7,1.9,2470.183,13.34,0.017,208.1
2019-09-04T09:07:03,42.805,6.029,-0.038,-0.028,-0.037,103.0,106.0,99.0,13.3,1505.4,326.7,-0.7,1.8,2470.087,13.34,0.047,233.6
2019-09-04T09:10:04,42.805,6.029,-0.013,-0.004,-0.035,102.0,107.0,98.0,13.4,1505.4,326.3,-0.7,1.8,2470.161,13.34,0.013,252.9
2019-09-04T09:13:05,42.805,6.029,-0.04,-0.004,-0.035,102.0,106.0,98.0,13.4,1505.4,327.1,-0.7,1.8,2470.166,13.34,0.04,264.3
2019-09-04T09:16:06,42.805,6.029,-0.018,-0.015,-0.043,102.0,106.0,99.0,13.3,1505.4,325.0,-0.7,1.8,2470.097,13.34,0.023,230.2
2019-09-04T09:19:07,42.805,6.029,-0.031,-0.008,-0.049,102.0,107.0,99.0,13.4,1505.4,324.4,-0.7,1.8,2470.152,13.34,0.032,255.5
2019-09-04T09:22:08,42.805,6.029,-0.043,-0.01,-0.06,102.0,106.0,98.0,13.4,1505.4,327.8,-0.7,1.9,2470.149,13.34,0.044,256.9
2019-09-04T09:25:09,42.805,6.029,-0.07,-0.007,-0.073,102.0,106.0,100.0,13.4,1505.4,327.0,-0.7,1.8,2470.168,13.35,0.07,264.3
2019-09-04T09:28:10,42.805,6.029,-0.034,-0.003,-0.057,102.0,106.0,99.0,13.4,1505.4,323.0,-0.7,1.9,2470.148,13.35,0.034,265.0
2019-09-04T09:31:11,42.805,6.029,-0.037,-0.009,-0.073,101.0,105.0,98.0,13.3,1505.4,323.8,-0.7,1.8,2470.172,13.35,0.038,256.3
2019-09-04T09:34:12,42.805,6.029,-0.039,-0.014,-0.04,101.0,106.0,100.0,13.3,1505.4,323.3,-0.7,1.8,2470.14,13.35,0.041,250.3